Location: *
(26.3740°N, 146.7320°E)
Time: 07:30:14
(UTC+00:00)

Daily predictions for brighter satellites

Satellite Brightness Start Highest point End
(mag) Time Altitude Azimuth Time Altitude Azimuth Time Altitude Azimuth
SL-16 R/B 4.3 15:56:40 27° NNE 15:56:40 27° NNE 15:59:45 10° N
ATLAS 5 CENTAUR R/B 4.4 14:30:36 10° WSW 16:17:28 55° S 16:26:30 10° E
SL-16 R/B 3.8 16:23:36 10° N 16:28:03 30° ENE 16:28:03 30° ENE
Cosmos 2322 Rocket 3.5 16:35:44 10° N 16:40:27 36° ENE 16:40:27 36° ENE
ATLAS 3B R/B 3.7 16:44:30 36° NNW 16:44:30 36° NNW 16:49:19 10° N
NOSS 3-2 (C) 4.2 16:45:28 44° NNE 16:45:28 44° NNE 16:49:38 10° NNE
SJ 16-02 4.1 16:43:28 10° NNE 16:46:09 16° ENE 16:47:37 14° E
CENTAUR R/B 3.0 16:59:26 47° E 16:59:26 47° E 17:05:01 10° NE
Atlas Centaur 2 4.2 16:59:39 28° SSE 16:59:52 28° SE 17:06:47 10° E
SEDSat Delta rocket 4.1 17:02:04 65° NE 17:02:04 65° NE 17:08:04 10° E
Cosmos 2266 Rocket 4.2 16:55:42 10° N 17:01:46 62° E 17:02:09 61° ESE
ADEOS II 2.5 17:06:35 10° NNE 17:11:19 60° ENE 17:11:19 60° ENE
CZ-2D R/B 4.3 17:10:16 10° NNW 17:11:15 14° NNW 17:11:15 14° NNW
Centaur AC-125 4.0 17:15:07 64° WSW 17:16:28 87° S 17:51:29 10° E
BREEZE-M DEB (TANK) 4.0 17:19:28 49° E 17:19:28 49° E 17:22:16 10° NE
USA 215 3.4 17:12:20 10° NE 17:18:48 62° SE 17:19:55 54° S
Cosmos 1953 4.1 17:15:27 10° N 17:17:40 29° NNE 17:17:40 29° NNE
Cosmos 1825 Rocket 4.3 17:30:22 45° ESE 17:30:38 46° E 17:34:46 10° NNE
Delta 198 4.5 17:33:00 62° SSW 17:33:29 64° SSW 17:40:15 10° ESE
ATLAS CENTAUR R/B 3.4 17:36:04 10° N 17:40:13 33° ENE 17:44:32 10° SE
Meteosat 1 Rocket2 3.8 17:42:53 54° WNW 17:44:18 86° NNE 17:52:14 10° E
Cosmos 2360 Rocket 2.5 17:45:20 10° NNW 17:50:55 66° ENE 17:56:30 10° SSE
PSLV R/B 3.5 17:48:17 10° NNE 17:52:28 74° E 17:53:19 54° SSE
Aureole 2 Rocket 4.4 17:50:50 10° NNW 17:52:09 21° NNW 17:52:09 21° NNW
Cosmos 1707 4.3 17:58:06 24° NW 17:58:06 24° NW 17:59:59 10° NNW
Okean O Rocket 3.4 17:54:07 10° NE 17:57:55 29° E 18:01:41 10° SSE
Cosmos 1470 3.8 17:54:39 10° NNW 17:57:08 34° NW 17:57:08 34° NW
Cosmos 2219 3.2 17:56:26 32° S 17:59:11 81° ESE 18:04:56 10° NNE
Cosmos 1953 Rocket 3.7 17:57:37 33° S 17:59:33 75° E 18:04:00 10° N
Cosmos 192 4.2 18:06:53 41° SW 18:08:28 67° WNW 18:13:21 10° N
Cosmos 2084 3.6 18:08:49 35° SSW 18:10:37 73° ESE 18:14:49 10° NNE
Cosmos 2227 Rocket 3.6 18:06:04 10° SSE 18:11:08 36° ESE 18:16:13 10° NE
Cosmos 1812 Rocket 3.9 18:07:05 10° NNW 18:11:14 41° W 18:11:14 41° W
SL-16 R/B 3.8 18:07:51 10° NW 18:09:47 18° WNW 18:09:47 18° WNW
Cosmos 2297 Rocket 3.8 18:08:15 10° SSE 18:13:12 32° ESE 18:18:10 10° NE
Cosmos 1553 Rocket 4.0 18:08:22 16° S 18:13:41 75° W 18:20:05 10° N
Cosmos 1758 Rocket 3.6 18:13:13 41° SW 18:14:21 54° W 18:18:37 10° N
Cosmos 1538 Rocket 3.9 18:13:32 24° SSW 18:16:44 83° WNW 18:21:54 10° NNE
Meteor 2-5 Rocket 3.7 18:14:40 26° SSW 18:17:40 57° W 18:23:09 10° N
GPS 2-18 Rocket1 3.8 18:18:01 33° S 18:18:15 34° S 18:21:37 10° ESE
MOS 1-B 4.3 18:16:50 10° N 18:22:36 65° WNW 18:27:22 15° SSW
Cosmos 2322 Rocket 3.9 18:20:37 10° NW 18:22:06 15° WNW 18:22:06 15° WNW
SJ 16-02 2.2 18:20:53 10° NW 18:24:26 29° W 18:24:26 29° W
COSMOS 2428 3.7 18:19:30 10° N 18:24:59 49° ENE 18:30:26 10° SE
BREEZE M DEB (TANK) 3.8 18:15:48 14° SW 18:26:17 66° SE 18:30:00 10° NE
Meteor 1-24 Rocket 3.5 18:23:18 10° SSW 18:28:29 75° W 18:33:49 10° N
In-Cosmos 22 4.1 18:24:28 12° SSW 18:29:27 65° W 18:34:48 10° N
Meteor 1-31 Rocket 2.8 18:30:38 10° NNE 18:34:28 77° E 18:38:16 10° S
Meteor 1-16 Rocket 4.1 18:31:34 10° NNW 18:36:57 58° W 18:42:10 10° S
CZ-4B R/B 3.7 18:40:26 10° NNW 18:43:54 29° WNW 18:45:56 18° WSW
Cosmos 1315 Rocket 2.7 18:40:41 10° S 18:44:43 80° W 18:48:42 10° N
Cosmos 1400 Rocket 3.8 18:45:52 18° WSW 18:47:48 27° W 18:51:11 10° NNW
SEDSat Delta rocket 4.1 18:42:13 11° W 18:48:09 55° SSW 18:54:46 10° SE
Atlas Centaur 2 3.3 18:42:16 16° WSW 18:49:19 69° SSE 18:57:41 10° ENE
CENTAUR R/B 3.9 18:46:38 13° W 18:49:58 20° NW 18:54:34 10° N
ADEOS II 4.0 18:49:35 10° NW 18:50:53 11° WNW 18:52:11 10° W
Cosmos-2242 2.9 18:50:36 10° NNW 18:54:48 63° W 18:58:59 10° S
CZ-4B R/B 3.2 18:49:23 10° N 18:54:50 69° WNW 19:00:09 10° SSW
USA 215 4.4 18:56:00 10° NNE 19:01:25 29° NW 19:06:50 10° W
Cosmos 1745 Rocket 4.1 18:58:41 10° NNW 19:04:44 54° W 19:10:50 10° SSW
Cosmos 2292 Rocket 3.9 19:03:49 10° NW 19:06:07 20° W 19:08:25 10° SW
Shenzhou-11 Module 2.9 19:08:03 10° SSW 19:10:51 41° SE 19:13:41 10° ENE
Okean-O 3.9 19:09:36 10° NNE 19:13:52 45° E 19:18:04 10° S
GPS 2-04 Rocket1 2.7 19:10:34 10° W 19:13:54 51° NNW 19:17:13 10° NE
ATLAS CENTAUR R/B 3.0 19:15:44 10° WNW 19:18:58 19° WSW 19:22:17 10° SSW
